Kowanyama Observation History
Time Wind Speed Temp Pressure Rel. Hum Rain
05/11:00pm ESE 3-4 kts 23.3°c 1015.0 hPa 63% 0.0mm
05/10:30pm S 3-4 kts 24.5°c 1015.2 hPa 57% 0.0mm
05/10:00pm SSW 5-6 kts 25.1°c 1015.5 hPa 55% 0.0mm
05/09:30pm SSW 5-7 kts 25.4°c 1015.5 hPa 55% 0.0mm
05/09:00pm SW 6-8 kts 25.7°c 1015.4 hPa 54% 0.0mm
05/08:30pm SW 6-8 kts 26.3°c 1015.3 hPa 53% 0.0mm
05/08:00pm WSW 6-7 kts 27.1°c 1014.9 hPa 53% 0.0mm
05/07:30pm CALM 0 kts 28.4°c 1014.4 hPa 53% 0.0mm
05/07:00pm SE 3-4 kts 28.8°c 1014.0 hPa 51% 0.0mm
05/06:30pm SE 3-5 kts 29.6°c 1013.7 hPa 49% 0.0mm
05/06:00pm SE 4-6 kts 29.9°c 1013.5 hPa 47% 0.0mm
05/05:30pm ESE 5-7 kts 30.4°c 1013.2 hPa 44% 0.0mm
05/05:00pm ESE 6-8 kts 30.8°c 1013.1 hPa 43% 0.0mm
05/04:30pm E 6-10 kts 31.8°c 1012.9 hPa 39% 0.0mm
05/04:00pm ESE 6-10 kts 31.8°c 1012.8 hPa 39% 0.0mm
05/03:30pm ESE 7-12 kts 31.4°c 1012.7 hPa 40% 0.0mm
05/03:00pm ESE 7-11 kts 31.4°c 1013.0 hPa 40% 0.0mm
05/02:30pm ENE 7-11 kts 31.1°c 1013.3 hPa 41% 0.0mm
05/02:00pm E 6-10 kts 30.9°c 1013.7 hPa 41% 0.0mm
05/01:30pm ESE 7-11 kts 31.0°c 1014.0 hPa 43% 0.0mm
05/01:00pm E 7-13 kts 29.9°c 1014.6 hPa 43% 0.0mm
05/12:30pm ESE 8-12 kts 29.3°c 1015.2 hPa 46% 0.0mm
05/12:00pm E 8-11 kts 29.5°c 1015.7 hPa 46% 0.0mm
05/11:30am E 8-14 kts 28.2°c 1016.3 hPa 49% 0.0mm
05/11:00am E 7-15 kts 27.7°c 1016.6 hPa 49% 0.0mm
05/10:30am ESE 7-11 kts 26.3°c 1017.1 hPa 51% 0.0mm
05/10:00am ESE 7-11 kts 25.1°c 1017.3 hPa 52% 0.0mm
05/09:30am ESE 7-9 kts 23.6°c 1017.5 hPa 55% 0.0mm
05/09:00am ESE 8-11 kts 22.7°c 1017.3 hPa 58% 0.0mm
05/08:30am ESE 7-10 kts 21.1°c 1017.1 hPa 63% 0.0mm
05/08:00am SE 6-8 kts 19.7°c 1016.6 hPa 69% 0.0mm
05/07:30am SE 4-5 kts 17.3°c 1016.3 hPa 75% 0.0mm
05/07:00am SE 3-5 kts 16.3°c 1015.9 hPa 78% 0.0mm
05/06:30am SE 4-5 kts 16.1°c 1015.7 hPa 78% 0.0mm
05/06:00am CALM 0 kts 15.4°c 1015.5 hPa 82% 0.0mm
05/05:30am CALM 0 kts 15.3°c 1015.2 hPa 81% 0.0mm
05/05:00am CALM 0 kts 15.8°c 1015.0 hPa 79% 0.0mm
05/04:30am CALM 0 kts 15.6°c 1015.0 hPa 81% 0.0mm
05/04:00am ENE 3-4 kts 15.6°c 1014.9 hPa 82% 0.0mm
05/03:30am CALM 0 kts 15.6°c 1014.9 hPa 82% 0.0mm
05/03:00am CALM 0 kts 15.6°c 1014.8 hPa 80% 0.0mm
05/02:30am CALM 0 kts 15.9°c 1015.2 hPa 80% 0.0mm
05/02:00am CALM 0 kts 16.1°c 1015.4 hPa 80% 0.0mm
05/01:30am S 1-3 kts 16.4°c 1015.9 hPa 76% 0.0mm
05/01:00am CALM 0 kts 16.6°c 1016.1 hPa 74% 0.0mm
05/12:30am E 3-5 kts 17.1°c 1016.5 hPa 74% 0.0mm
05/12:00am CALM 0 kts 17.4°c 1016.2 hPa 72% 0.0mm
Time Wind Speed Temp Pressure Rel. Hum Rain
04/11:30pm CALM 0-3 kts 18.2°c 1016.5 hPa 68% 0.0mm
04/11:00pm S 2-3 kts 18.9°c 1016.8 hPa 67% 0.0mm
04/10:30pm S 1-4 kts 19.0°c 1017.1 hPa 65% 0.0mm
04/10:00pm SSW 2-3 kts 19.5°c 1017.2 hPa 64% 0.0mm
04/09:30pm SSW 5-6 kts 20.2°c 1017.2 hPa 61% 0.0mm
04/09:00pm SSW 5-6 kts 20.7°c 1017.1 hPa 59% 0.0mm
04/08:30pm SSW 5-7 kts 21.3°c 1017.0 hPa 56% 0.0mm
04/08:00pm SSW 5-7 kts 21.9°c 1016.8 hPa 52% 0.0mm
04/07:30pm SSW 3-5 kts 21.2°c 1016.3 hPa 52% 0.0mm
04/07:28pm S 3-4 kts 21.7°c 1016.2 hPa 48% 0.0mm
04/07:00pm SSE 3-4 kts 23.3°c 1015.9 hPa 41% 0.0mm
04/06:30pm SE 4-5 kts 25.3°c 1015.6 hPa 36% 0.0mm
04/06:00pm SE 4-6 kts 26.9°c 1015.2 hPa 31% 0.0mm
04/05:30pm SE 7-10 kts 28.7°c 1014.8 hPa 26% 0.0mm
04/05:00pm SSE 8-11 kts 29.2°c 1014.4 hPa 26% 0.0mm
04/04:30pm SE 6-9 kts 29.8°c 1014.2 hPa 25% 0.0mm
04/04:00pm E 5-8 kts 30.0°c 1014.1 hPa 25% 0.0mm
04/03:30pm ESE 7-10 kts 29.8°c 1014.2 hPa 26% 0.0mm
04/03:00pm SSE 7-11 kts 29.6°c 1014.3 hPa 25% 0.0mm
04/02:30pm E 6-10 kts 29.6°c 1014.5 hPa 28% 0.0mm
04/02:00pm ESE 7-13 kts 29.4°c 1015.0 hPa 28% 0.0mm
04/01:30pm SSE 8-14 kts 29.3°c 1015.5 hPa 29% 0.0mm
04/01:00pm SE 8-13 kts 28.6°c 1016.0 hPa 32% 0.0mm
04/12:30pm SE 7-12 kts 28.4°c 1016.5 hPa 34% 0.0mm
04/12:00pm SE 8-13 kts 28.4°c 1017.0 hPa 34% 0.0mm
04/11:30am SE 8-12 kts 27.1°c 1017.5 hPa 38% 0.0mm
04/11:00am ESE 8-11 kts 25.7°c 1017.9 hPa 40% 0.0mm
04/10:30am ESE 7-11 kts 25.3°c 1018.1 hPa 42% 0.0mm
04/10:00am ESE 8-11 kts 24.2°c 1018.3 hPa 45% 0.0mm
04/09:30am SE 10-13 kts 23.4°c 1018.3 hPa 45% 0.0mm
04/09:00am SE 9-13 kts 22.5°c 1018.3 hPa 48% 0.0mm
04/08:30am ESE 6-9 kts 21.2°c 1018.2 hPa 52% 0.0mm
04/08:00am SE 5-7 kts 19.5°c 1018.0 hPa 60% 0.0mm
04/07:30am SE 5-6 kts 17.0°c 1017.7 hPa 65% 0.0mm
04/07:00am SE 5-6 kts 17.0°c 1017.4 hPa 60% 0.0mm
04/06:30am SSE 5 kts 15.9°c 1017.0 hPa 64% 0.0mm
04/06:00am SSE 4-5 kts 16.9°c 1016.6 hPa 61% 0.0mm
04/05:30am SE 3-4 kts 16.3°c 1016.3 hPa 66% 0.0mm
04/05:00am SE 1-4 kts 15.8°c 1016.1 hPa 71% 0.0mm
04/04:30am CALM 0 kts 16.0°c 1015.9 hPa 68% 0.0mm
04/04:00am CALM 0 kts 16.3°c 1016.1 hPa 65% 0.0mm
04/03:30am CALM 0 kts 16.7°c 1016.1 hPa 65% 0.0mm
04/03:00am CALM 0 kts 17.5°c 1016.2 hPa 63% 0.0mm
04/02:30am SSE 3-4 kts 17.9°c 1016.3 hPa 59% 0.0mm
04/02:00am SSE 3-4 kts 18.8°c 1016.4 hPa 54% 0.0mm
04/01:30am S 3-4 kts 19.1°c 1016.8 hPa 53% 0.0mm
04/01:00am S 2-3 kts 20.0°c 1016.9 hPa 49% 0.0mm
04/12:30am E 5-7 kts 21.8°c 1017.2 hPa 45% 0.0mm
04/12:00am E 6-13 kts 19.6°c 1017.2 hPa 55% 0.0mm
Time Wind Speed Temp Pressure Rel. Hum Rain
03/11:36pm SSE 4-5 kts 18.7°c 1016.8 hPa 63% 0.0mm
03/11:30pm SSE 3-4 kts 18.0°c 1016.8 hPa 67% 0.0mm
03/11:25pm SSE 1-4 kts 18.3°c 1016.9 hPa 66% 0.0mm
03/11:00pm CALM 0 kts 18.4°c 1016.9 hPa 63% 0.0mm
03/10:30pm CALM 0 kts 18.8°c 1017.0 hPa 61% 0.0mm
03/10:00pm CALM 0 kts 19.5°c 1017.1 hPa 56% 0.0mm
03/09:30pm SSW 2-3 kts 20.2°c 1017.1 hPa 53% 0.0mm
03/09:00pm SW 4 kts 21.2°c 1016.8 hPa 48% 0.0mm
03/08:30pm SW 4-6 kts 21.0°c 1016.6 hPa 51% 0.0mm
03/08:00pm SW 4 kts 22.0°c 1016.2 hPa 48% 0.0mm
03/07:30pm SSE 4 kts 23.9°c 1015.7 hPa 40% 0.0mm
03/07:00pm S 4-5 kts 25.2°c 1015.4 hPa 35% 0.0mm
03/06:30pm SSE 5-6 kts 26.1°c 1015.2 hPa 31% 0.0mm
03/06:00pm SSE 7-9 kts 27.9°c 1015.0 hPa 28% 0.0mm
03/05:30pm SE 7-9 kts 29.6°c 1014.4 hPa 26% 0.0mm
03/05:00pm SE 9-13 kts 30.3°c 1014.1 hPa 23% 0.0mm
03/04:30pm SE 10-14 kts 30.8°c 1013.9 hPa 24% 0.0mm
03/04:00pm SE 9-11 kts 30.6°c 1013.8 hPa 24% 0.0mm
03/03:30pm SSE 9-15 kts 30.7°c 1013.8 hPa 25% 0.0mm
03/03:00pm SSE 9-16 kts 30.6°c 1014.2 hPa 27% 0.0mm
03/02:30pm ESE 8-14 kts 31.2°c 1014.5 hPa 28% 0.0mm
03/02:00pm SE 9-15 kts 30.3°c 1014.8 hPa 28% 0.0mm
03/01:30pm ESE 9-15 kts 30.0°c 1015.2 hPa 29% 0.0mm
03/01:00pm SE 11-18 kts 29.7°c 1015.7 hPa 31% 0.0mm
03/12:30pm ESE 8-13 kts 29.6°c 1016.4 hPa 33% 0.0mm
03/12:00pm ESE 11-15 kts 29.3°c 1016.9 hPa 35% 0.0mm
03/11:30am SE 9-13 kts 28.0°c 1017.4 hPa 35% 0.0mm
03/11:00am ESE 12-19 kts 27.8°c 1017.7 hPa 37% 0.0mm
03/10:30am ESE 9-13 kts 27.9°c 1018.0 hPa 40% 0.0mm
03/10:00am ESE 8-12 kts 25.8°c 1018.3 hPa 42% 0.0mm
03/09:30am SE 8-11 kts 24.4°c 1018.6 hPa 46% 0.0mm
03/09:15am SSE 8-10 kts 23.4°c 1018.6 hPa 46% 0.0mm
03/09:04am SSE 8-11 kts 22.9°c 1018.6 hPa 46% 0.0mm
03/09:00am SSE 9-11 kts 22.5°c 1018.6 hPa 45% 0.0mm
03/08:56am SE 9-11 kts 22.2°c 1018.6 hPa 45% 0.0mm
03/08:37am SE 8-10 kts 21.6°c 1018.5 hPa 45% 0.0mm
03/08:30am SE 7-9 kts 21.1°c 1018.4 hPa 45% 0.0mm
03/08:00am SE 6-8 kts 19.4°c 1018.0 hPa 49% 0.0mm
03/07:30am SE 5-7 kts 17.5°c 1017.7 hPa 56% 0.0mm
03/07:28am SE 5 kts 17.5°c 1017.7 hPa 56% 0.0mm
03/07:11am SSE 3-5 kts 17.0°c 1017.4 hPa 58% 0.0mm
03/07:00am SE 4-5 kts 16.9°c 1017.4 hPa 59% 0.0mm
03/06:30am SE 3-4 kts 16.7°c 1017.0 hPa 61% 0.0mm
03/06:00am SE 3-4 kts 16.8°c 1016.9 hPa 65% 0.0mm
03/05:30am ESE 3-4 kts 17.5°c 1016.8 hPa 60% 0.0mm
03/05:00am ESE 4-5 kts 17.9°c 1016.6 hPa 58% 0.0mm
03/04:30am ESE 3-5 kts 18.2°c 1016.6 hPa 52% 0.0mm
03/04:00am SE 3-4 kts 19.2°c 1016.5 hPa 49% 0.0mm
03/03:30am SE 4-5 kts 19.9°c 1016.4 hPa 48% 0.0mm
03/03:00am CALM 0 kts 18.7°c 1016.3 hPa 54% 0.0mm
03/02:30am SE 3-4 kts 20.1°c 1016.3 hPa 49% 0.0mm
03/02:00am SE 4-5 kts 22.2°c 1016.5 hPa 37% 0.0mm
03/01:30am ESE 6-8 kts 23.5°c 1017.0 hPa 34% 0.0mm
03/01:00am SSE 10-15 kts 24.3°c 1016.2 hPa 31% 0.0mm
03/12:30am S 10-14 kts 24.4°c 1016.4 hPa 34% 0.0mm
03/12:00am S 7-9 kts 23.5°c 1016.6 hPa 42% 0.0mm